Lid_Strength_Index
5 3 1 1 0 -1 -1 -2 -1 -1 -1 -1 -1 -1 -1 -1 -1 -1 -1 -1 -1 -1 -1 -1 -1 -1 -1 -1 -1 -2 -2 -2 -2 -2 -2 -2 -2 -2 -2 -2 -2 -1 -2
4 2 0 1 0 -1 -1 -1 -1 -2 -1 -1 -1 -1 -1 -1 -1 -1 -1 -1 -1 -1 -1 -1 -1 -1 -2 -1 -2 -2 -2 -2 -2 -2 -2 -2 -2 -2 -2 -2 -2 -1 -2
4 2 2 1 1 0 0 -0 -1 -1 -2 -2 -1 -1 -1 -1 -1 -1 -1 -1 -1 -1 -1 -2 -1 -1 -2 -2 -2 -2 -2 -2 -2 -2 -2 -0 -0 -2 -2 -2 -2 -2 -2
3 3 2 2 1 1 1 0 -0 -1 -1 -2 -2 -2 -1 -1 -1 -1 -1 -1 -1 -1 -1 -1 -2 -1 -2 -1 -1 -1 -2 -2 -2 -1 -1 -1 -1 -2 -2 -2 -2 -2 -2
4 3 2 2 2 2 2 1 1 0 -0 -1 -1 -2 -2 -1 -1 -1 -1 -1 -1 -1 -1 -1 -1 -1 -1 -1 -1 -1 -2 -2 -1 -1 -0 0 0 -1 -2 -2 -2 -2 -2
5 3 2 3 3 3 2 2 2 1 1 0 -0 -1 -2 -2 -1 -1 -1 -1 -1 -1 -1 -1 -1 -1 -2 -2 -1 -2 -2 -2 -1 1 0 -1 -0 -2 -2 -2 -2 -2 -1
6 5 4 3 4 3 3 2 2 2 2 2 1 -0 -1 -1 -1 -1 -1 -1 -1 -1 -1 -1 -1 -1 -1 -2 -1 -1 -2 -1 1 1 1 -0 -1 -2 -2 -2 -2 -1 0
6 5 4 3 4 4 3 3 3 3 2 2 2 1 0 -0 -1 -1 -1 -1 -1 -1 -1 -1 -1 -1 -1 -1 -1 -1 -0 -0 1 1 1 0 -1 -2 -2 -2 -1 -0 -1
5 5 5 5 4 3 3 4 4 3 3 3 2 2 1 0 -1 -1 -1 -1 -1 -1 -1 -1 -1 -1 -1 -1 -1 -0 0 1 2 2 1 1 -2 -2 -1 -0 0 -1 -1
5 5 6 6 6 6 6 3 4 3 3 3 3 3 2 1 -1 -1 -2 -1 -1 -1 -1 -1 -1 -1 -0 -1 1 1 2 2 2 2 2 1 -2 -1 -0 0 -1 -1 -1
4 6 6 6 6 6 6 5 4 4 3 4 4 4 4 4 1 1 -1 -1 -1 -1 -1 -1 -1 -1 -0 -0 1 1 2 2 3 2 2 0 -1 -0 0 0 -1 -1 -1
6 6 6 7 7 7 5 7 7 7 7 7 7 7 6 5 2 1 1 -0 -1 -1 -1 -1 -1 -0 0 0 1 2 2 2 2 2 2 0 0 1 1 -0 -1 -1 -1
6 6 6 6 7 7 7 7 8 8 8 8 8 7 7 5 3 2 1 -1 -1 1 -0 -0 0 0 1 0 2 2 2 2 1 2 1 0 0 1 0 -0 -1 -1 -2
7 7 6 6 7 7 8 8 8 8 8 8 8 7 7 7 5 3 2 1 -0 -0 -0 0 0 0 0 0 2 2 2 2 2 2 2 2 0 1 0 -1 -1 -2 -2
7 7 6 7 7 7 8 8 8 8 9 8 8 7 7 7 5 3 1 -0 -0 1 -0 1 0 -0 0 0 2 2 2 2 2 2 3 3 1 -0 -1 -1 -2 -2 -2
7 7 6 6 7 7 8 9 9 9 8 8 8 7 6 5 5 2 0 -0 -0 -0 -0 0 0 0 1 1 1 1 2 2 2 2 2 2 1 0 -0 -1 -1 -2 -2
7 7 6 7 7 8 8 8 8 8 8 9 8 7 6 5 3 2 0 0 -0 -0 -0 0 1 0 1 0 2 2 2 2 2 2 2 2 2 2 0 -0 -1 -2 -2
8 7 8 7 8 8 8 9 8 8 9 8 7 7 6 4 3 1 0 0 -0 -0 0 0 1 1 1 1 2 2 2 2 2 3 2 3 3 3 3 1 -0 -1 -1
8 8 8 8 9 9 8 8 8 8 8 7 7 6 6 3 2 1 1 0 0 -0 1 1 1 1 1 2 3 2 3 3 3 3 3 4 4 5 5 3 2 2 -0
9 9 8 8 9 9 9 9 8 8 8 8 6 5 4 2 1 1 1 1 0 0 1 1 1 1 2 2 3 3 3 4 3 4 4 4 5 5 6 5 5 4 2
10 10 10 10 10 10 11 11 10 10 10 8 6 5 3 2 1 1 1 1 0 1 1 1 2 2 3 3 5 6 7 7 7 6 5 6 7 7 7 7 7 8 7
11 11 10 10 10 11 10 10 9 9 8 7 6 5 2 2 2 1 1 1 1 1 1 1 2 3 3 3 5 6 8 8 8 8 7 7 8 8 8 8 8 9 8
12 12 10 10 11 11 10 9 9 8 9 7 6 6 3 2 2 1 1 1 1 0 1 1 1 2 4 3 4 5 8 9 10 9 9 8 8 8 9 9 9 9 8
13 12 11 10 11 10 9 10 10 9 11 8 7 6 6 2 3 1 1 1 1 1 1 1 1 2 3 5 4 4 6 7 10 12 10 10 9 9 9 9 10 10 8
13 12 12 11 11 10 9 9 10 11 9 7 6 6 3 3 3 2 2 2 2 1 1 1 2 2 3 4 4 5 6 6 7 9 12 11 10 10 10 10 10 10 9
13 12 12 12 12 10 10 9 9 10 9 8 7 6 4 4 4 3 3 3 2 2 1 2 2 2 3 3 3 4 5 6 7 8 10 11 11 11 11 10 10 10 10